Location: Franzen
(48.6167°N, 15.3833°E)
Time: 09:21:03
(UTC+00:00)

Cosmos 1709 Rocket - Pass Details

Date: 03 August 2021
Orbit: 947 x 1002 km, 82.9° (Epoch: 18 September)

Event Time Altitude Azimuth Distance (km) Brightness Sun altitude
Exits shadow 22:36:07 47° 144° (SE) 1,308 4.2 -23.8°
Maximum altitude 22:37:43 60° 93° (E) 1,135 4.2 -23.9°
Drops below altitude 10° 22:44:00 10° 15° (NNE) 2,787 7.3 -24.0°
Sets 22:46:35 0° 12° (NNE) 3,741 8.3 -24.0°
